Change the Weather History Date:

Sunday, August 17, 2014

  Actual Average (KUIN) Record (KUIN)
Temperature  
Mean Temperature 72 °F 75 °F  
Max Temperature 76 °F 85 °F 106 °F (1936)
Min Temperature 69 °F 65 °F 52 °F (2012)
Degree Days  
Heating Degree Days 0 0  
Month to date heating degree days 0  
Since 1 June heating degree days 16  
Since 1 July heating degree days 0  
Cooling Degree Days 8 10  
Month to date cooling degree days 175  
Year to date cooling degree days 831  
Since 1 June cooling degree days 745  
Growing Degree Days 22 (Base 50)    
Moisture  
Dew Point 69 °F    
Average Humidity 90    
Maximum Humidity 94    
Minimum Humidity 80    
Precipitation  
Precipitation 0.01 in 0.11 in 3.07 in (2009)
Month to date precipitation 2.01  
Year to date precipitation 24.13  
Sea Level Pressure  
Sea Level Pressure 29.90 in    
Wind  
Wind Speed 4 mph (NNE)    
Max Wind Speed 9 mph    
Max Gust Speed -    
Visibility 3 miles    
Events Fog , Rain , Thunderstorm    
T = Trace of Precipitation, MM = Missing Value Source: NWS Daily Summary

Daily Weather History Graph

Daily Weather History Graph

Search for Another Location

Airport or City:

Trip Planner

Search our weather history database for the weather conditions in past years. The results will help you decide how hot, cold, wet, or windy it might be!

Date:

Astronomy

Aug. 17, 2014 Rise Set
Actual Time 6:17 AM CDT 7:56 PM CDT
Civil Twilight 5:48 AM CDT 8:24 PM CDT
Nautical Twilight 5:13 AM CDT 8:59 PM CDT
Astronomical Twilight 4:37 AM CDT 9:36 PM CDT
Moon No Moon Rise 2:01 PM CDT (8/17)
Length of Visible Light 14h 36m
Length of Day
13h 39m
Waning Gibbous, 48% of the Moon is Illuminated
Aug 17
Waning Gibbous
Aug 25
New
Sep 2
First Quarter
Sep 8
Full
Sep 15
Last Quarter

Hourly Weather History & Observations

Time (CDT) Temp. Dew Point Humidity Pressure Visibility Wind Dir Wind Speed Gust Speed Precip Events Conditions
12:15 AM 71.8 °F 69.8 °F 93% 29.83 in 7.0 mi SSE 6.9 mph - N/A Thunderstorm Thunderstorm
12:35 AM 71.8 °F 69.4 °F 92% 29.84 in 7.0 mi Calm Calm - N/A   Mostly Cloudy
12:55 AM 71.6 °F 69.1 °F 92% 29.84 in 7.0 mi Calm Calm - N/A   Mostly Cloudy
1:15 AM 70.9 °F 68.5 °F 92% 29.84 in 4.0 mi Calm Calm - N/A   Overcast
1:35 AM 71.4 °F 69.1 °F 92% 29.84 in 3.0 mi Calm Calm - N/A   Overcast
1:55 AM 71.8 °F 69.6 °F 93% 29.83 in 3.0 mi ENE 4.6 mph - N/A   Overcast
2:15 AM 71.8 °F 69.8 °F 93% 29.83 in 2.5 mi ENE 3.5 mph - N/A   Overcast
2:35 AM 71.8 °F 69.8 °F 93% 29.83 in 2.5 mi ENE 3.5 mph - N/A   Overcast
2:55 AM 71.8 °F 69.8 °F 93% 29.84 in 3.0 mi Calm Calm - N/A   Overcast
3:15 AM 71.8 °F 69.8 °F 93% 29.84 in 2.0 mi Calm Calm - N/A Rain Light Rain
3:35 AM 71.8 °F 69.8 °F 93% 29.84 in 2.0 mi Calm Calm - N/A   Overcast
3:55 AM 71.8 °F 69.8 °F 93% 29.84 in 1.8 mi NNE 3.5 mph - N/A   Overcast
4:15 AM 71.6 °F 69.8 °F 94% 29.84 in 1.8 mi Calm Calm - N/A Rain , Thunderstorm Light Thunderstorms and Rain
4:35 AM 71.2 °F 69.3 °F 93% 29.84 in 2.0 mi NNE 5.8 mph - N/A   Overcast
4:55 AM 71.1 °F 69.1 °F 93% 29.84 in 1.5 mi NNE 4.6 mph - N/A   Overcast
5:15 AM 70.9 °F 68.9 °F 93% 29.84 in 1.2 mi NNE 4.6 mph - N/A   Overcast
5:35 AM 70.7 °F 68.9 °F 94% 29.85 in 1.2 mi NNE 4.6 mph - N/A   Overcast
5:55 AM 70.7 °F 68.9 °F 94% 29.86 in 1.2 mi NE 5.8 mph - N/A   Overcast
6:15 AM 70.7 °F 68.7 °F 93% 29.87 in 1.0 mi NNE 5.8 mph - N/A   Overcast
6:35 AM 70.7 °F 68.5 °F 93% 29.88 in 0.8 mi North 3.5 mph - N/A   Overcast
6:55 AM 70.3 °F 68.4 °F 93% 29.88 in 0.2 mi North 5.8 mph - 0.01 in Fog Fog
7:15 AM 70.2 °F 68.2 °F 93% 29.89 in 0.2 mi North 6.9 mph - N/A Fog Fog
7:35 AM 70.0 °F 68.2 °F 94% 29.89 in 0.2 mi NNE 4.6 mph - N/A Fog Fog
7:55 AM 70.2 °F 68.4 °F 94% 29.89 in 0.2 mi North 5.8 mph - N/A Fog Fog
8:15 AM 70.0 °F 68.2 °F 94% 29.90 in 0.2 mi North 6.9 mph - N/A Fog Fog
8:35 AM 70.0 °F 68.2 °F 94% 29.91 in 0.2 mi NNE 6.9 mph - N/A Fog Fog
8:55 AM 70.0 °F 68.2 °F 94% 29.91 in 0.2 mi North 3.5 mph - N/A Fog Fog
9:15 AM 69.8 °F 68.0 °F 94% 29.92 in 0.2 mi North 4.6 mph - N/A Fog Fog
9:35 AM 70.0 °F 68.2 °F 94% 29.92 in 0.2 mi North 6.9 mph - N/A Fog Fog
9:55 AM 69.8 °F 68.0 °F 94% 29.93 in 0.5 mi North 6.9 mph - N/A Fog Fog
10:15 AM 69.8 °F 68.0 °F 94% 29.93 in 1.0 mi North 6.9 mph - N/A   Overcast
10:35 AM 70.2 °F 68.4 °F 94% 29.93 in 0.8 mi North 9.2 mph - N/A   Overcast
10:55 AM 69.8 °F 68.0 °F 94% 29.93 in 0.5 mi North 6.9 mph - N/A Fog Fog
11:15 AM 69.8 °F 68.0 °F 94% 29.93 in 0.8 mi North 6.9 mph - N/A   Overcast
11:35 AM 70.3 °F 68.5 °F 94% 29.93 in 0.5 mi North 5.8 mph - N/A Fog Fog
11:55 AM 70.3 °F 68.5 °F 94% 29.93 in 1.2 mi North 9.2 mph - N/A   Overcast
12:15 PM 70.7 °F 68.9 °F 94% 29.93 in 1.8 mi North 8.1 mph - N/A   Overcast
12:35 PM 70.7 °F 68.9 °F 94% 29.93 in 2.5 mi NNW 4.6 mph - N/A   Overcast
12:55 PM 71.8 °F 69.4 °F 92% 29.93 in 4.0 mi North 6.9 mph - N/A   Overcast
1:15 PM 72.3 °F 69.3 °F 90% 29.93 in 4.0 mi North 6.9 mph - N/A   Overcast
1:35 PM 72.7 °F 69.1 °F 88% 29.94 in 4.0 mi NE 5.8 mph - N/A   Overcast
1:55 PM 73.2 °F 68.9 °F 86% 29.95 in 4.0 mi North 6.9 mph - N/A   Overcast
2:15 PM 74.3 °F 69.6 °F 85% 29.95 in 4.0 mi NE 5.8 mph - N/A   Overcast
2:35 PM 74.3 °F 68.9 °F 83% 29.95 in 5.0 mi NNE 3.5 mph - N/A   Haze
2:55 PM 76.1 °F 69.8 °F 81% 29.95 in 5.0 mi NE 5.8 mph - N/A   Haze
3:15 PM 75.4 °F 69.3 °F 81% 29.94 in 5.0 mi ENE 6.9 mph - N/A   Haze
3:35 PM 75.6 °F 69.3 °F 81% 29.94 in 5.0 mi NE 8.1 mph - N/A   Haze
3:55 PM 75.7 °F 69.3 °F 80% 29.94 in 5.0 mi ENE 6.9 mph - N/A   Haze
4:15 PM 76.1 °F 69.8 °F 81% 29.94 in 7.0 mi NNE 5.8 mph - N/A   Overcast
4:35 PM 75.4 °F 69.4 °F 82% 29.94 in 3.0 mi NE 4.6 mph - N/A   Haze
4:55 PM 75.4 °F 69.6 °F 82% 29.93 in 5.0 mi NE 4.6 mph - N/A   Haze
5:15 PM 75.2 °F 69.8 °F 83% 29.93 in 5.0 mi Calm Calm - N/A   Haze
5:35 PM 75.6 °F 69.8 °F 82% 29.93 in 5.0 mi Calm Calm - N/A   Haze
5:55 PM 76.1 °F 69.8 °F 81% 29.92 in 5.0 mi Calm Calm - N/A   Haze
6:15 PM 75.7 °F 69.6 °F 81% 29.91 in 5.0 mi Calm Calm - N/A   Haze
6:35 PM 76.1 °F 69.6 °F 80% 29.91 in 7.0 mi Calm Calm - N/A   Scattered Clouds
6:55 PM 74.8 °F 69.6 °F 84% 29.91 in 5.0 mi Calm Calm - N/A   Haze
7:15 PM 74.7 °F 69.8 °F 85% 29.91 in 5.0 mi Calm Calm - N/A   Haze
7:35 PM 73.9 °F 69.8 °F 87% 29.91 in 5.0 mi Calm Calm - N/A   Mostly Cloudy
7:55 PM 73.8 °F 69.8 °F 87% 29.92 in 4.0 mi Calm Calm - N/A   Overcast
8:15 PM 73.8 °F 69.8 °F 87% 29.92 in 5.0 mi Calm Calm - N/A   Overcast
8:35 PM 73.4 °F 69.8 °F 88% 29.93 in 5.0 mi Calm Calm - N/A   Mostly Cloudy
8:55 PM 72.5 °F 69.3 °F 90% 29.93 in 4.0 mi Calm Calm - N/A   Mostly Cloudy
9:15 PM 72.9 °F 69.8 °F 90% 29.95 in 4.0 mi NW 3.5 mph - N/A   Mostly Cloudy
9:35 PM 72.1 °F 69.3 °F 91% 29.94 in 3.0 mi Calm Calm - N/A   Overcast
9:55 PM 72.5 °F 69.6 °F 91% 29.94 in 4.0 mi Calm Calm - N/A   Overcast
10:15 PM 72.0 °F 69.3 °F 91% 29.93 in 3.0 mi NW 3.5 mph - N/A   Overcast
10:35 PM 71.6 °F 68.9 °F 91% 29.93 in 3.0 mi Calm Calm - N/A   Overcast
10:55 PM 71.1 °F 68.5 °F 92% 29.94 in 3.0 mi Calm Calm - N/A   Overcast
11:15 PM 70.7 °F 68.2 °F 92% 29.94 in 2.0 mi Calm Calm - N/A   Overcast
11:35 PM 71.2 °F 68.9 °F 92% 29.94 in 4.0 mi Calm Calm - N/A   Overcast
11:55 PM 71.2 °F 68.9 °F 92% 29.94 in 3.0 mi Calm Calm - N/A   Overcast